TimeCDT,TemperatureF,Dew PointF,Humidity,Sea Level PressureIn,VisibilityMPH,Wind Direction,Wind SpeedMPH,Gust SpeedMPH,PrecipitationIn,Events,Conditions,WindDirDegrees,DateUTC
12:14 AM,60.8,37.4,42,29.61,10.0,South,3.5,-,N/A,,Mostly Cloudy,180,2012-10-16 05:14:00
12:33 AM,60.8,37.4,42,29.61,10.0,South,4.6,-,N/A,,Clear,180,2012-10-16 05:33:00
12:53 AM,59.0,37.4,45,29.61,10.0,SSE,4.6,-,N/A,,Clear,160,2012-10-16 05:53:00
1:13 AM,57.2,37.4,48,29.62,10.0,Calm,Calm,-,N/A,,Clear,0,2012-10-16 06:13:00
1:34 AM,55.4,37.4,51,29.62,10.0,North,3.5,-,N/A,,Clear,350,2012-10-16 06:34:00
1:53 AM,55.4,37.4,51,29.62,10.0,ENE,3.5,-,N/A,,Clear,60,2012-10-16 06:53:00
2:13 AM,53.6,37.4,54,29.62,10.0,Calm,Calm,-,N/A,,Clear,0,2012-10-16 07:13:00
2:33 AM,57.2,39.2,51,29.61,10.0,Calm,Calm,-,N/A,,Clear,0,2012-10-16 07:33:00
2:53 AM,57.2,39.2,51,29.60,10.0,SSE,3.5,-,N/A,,Clear,160,2012-10-16 07:53:00
3:14 AM,55.4,39.2,54,29.59,10.0,SE,5.8,-,N/A,,Clear,140,2012-10-16 08:14:00
3:33 AM,59.0,39.2,48,29.58,10.0,South,4.6,-,N/A,,Clear,170,2012-10-16 08:33:00
3:53 AM,59.0,39.2,48,29.57,10.0,SSE,6.9,-,N/A,,Clear,150,2012-10-16 08:53:00
4:14 AM,57.2,39.2,51,29.57,10.0,Calm,Calm,-,N/A,,Clear,0,2012-10-16 09:14:00
4:33 AM,57.2,39.2,51,29.55,10.0,ESE,5.8,-,N/A,,Clear,110,2012-10-16 09:33:00
5:34 AM,53.6,39.2,58,29.55,10.0,SSE,3.5,-,N/A,,Scattered Clouds,150,2012-10-16 10:34:00
5:53 AM,53.6,39.2,58,29.54,10.0,ENE,3.5,-,N/A,,Scattered Clouds,70,2012-10-16 10:53:00
6:13 AM,51.8,39.2,62,29.54,10.0,Calm,Calm,-,N/A,,Clear,0,2012-10-16 11:13:00
6:34 AM,51.8,39.2,62,29.55,10.0,Calm,Calm,-,N/A,,Clear,0,2012-10-16 11:34:00
7:13 AM,51.8,37.4,58,29.54,10.0,Calm,Calm,-,N/A,,Clear,0,2012-10-16 12:13:00
7:33 AM,48.2,37.4,66,29.54,10.0,Calm,Calm,-,N/A,,Clear,0,2012-10-16 12:33:00
7:53 AM,46.4,37.4,71,29.54,10.0,Calm,Calm,-,N/A,,Clear,0,2012-10-16 12:53:00
8:13 AM,48.2,37.4,66,29.54,10.0,Calm,Calm,-,N/A,,Clear,0,2012-10-16 13:13:00
8:33 AM,50.0,39.2,66,29.54,10.0,Calm,Calm,-,N/A,,Clear,0,2012-10-16 13:33:00
8:54 AM,51.8,39.2,62,29.53,10.0,Calm,Calm,-,N/A,,Clear,0,2012-10-16 13:54:00
9:13 AM,53.6,39.2,58,29.52,10.0,Calm,Calm,-,N/A,,Clear,0,2012-10-16 14:13:00
9:34 AM,55.4,39.2,54,29.53,10.0,WNW,3.5,-,N/A,,Clear,300,2012-10-16 14:34:00
9:53 AM,57.2,41.0,55,29.53,10.0,West,4.6,-,N/A,,Clear,280,2012-10-16 14:53:00
10:13 AM,60.8,42.8,52,29.53,7.0,West,4.6,-,N/A,,Clear,270,2012-10-16 15:13:00
10:33 AM,64.4,42.8,45,29.53,10.0,WNW,5.8,-,N/A,,Clear,300,2012-10-16 15:33:00
10:53 AM,66.2,44.6,46,29.52,10.0,NW,4.6,-,N/A,,Clear,310,2012-10-16 15:53:00
11:13 AM,68.0,44.6,43,29.51,10.0,Calm,Calm,-,N/A,,Clear,0,2012-10-16 16:13:00
11:33 AM,69.8,42.8,38,29.50,10.0,NW,4.6,-,N/A,,Clear,310,2012-10-16 16:33:00
11:54 AM,69.8,42.8,38,29.50,10.0,WNW,4.6,-,N/A,,Clear,300,2012-10-16 16:54:00
12:14 PM,71.6,42.8,35,29.49,10.0,NW,6.9,-,N/A,,Clear,310,2012-10-16 17:14:00
12:33 PM,71.6,42.8,35,29.48,10.0,NNW,6.9,-,N/A,,Clear,330,2012-10-16 17:33:00
12:53 PM,71.6,42.8,35,29.47,10.0,NW,5.8,-,N/A,,Clear,320,2012-10-16 17:53:00
1:13 PM,73.4,42.8,33,29.47,10.0,NW,8.1,-,N/A,,Clear,310,2012-10-16 18:13:00
1:33 PM,73.4,41.0,31,29.46,10.0,West,4.6,-,N/A,,Clear,260,2012-10-16 18:33:00
1:53 PM,73.4,41.0,31,29.44,10.0,West,4.6,-,N/A,,Clear,280,2012-10-16 18:53:00
2:13 PM,75.2,41.0,29,29.43,10.0,Calm,Calm,-,N/A,,Clear,0,2012-10-16 19:13:00
2:33 PM,73.4,41.0,31,29.42,10.0,WSW,4.6,-,N/A,,Clear,250,2012-10-16 19:33:00
2:53 PM,75.2,41.0,29,29.41,10.0,West,5.8,-,N/A,,Clear,260,2012-10-16 19:53:00
3:14 PM,75.2,41.0,29,29.42,10.0,NW,6.9,-,N/A,,Clear,310,2012-10-16 20:14:00
3:34 PM,75.2,41.0,29,29.42,10.0,West,6.9,-,N/A,,Clear,260,2012-10-16 20:34:00
3:53 PM,73.4,41.0,31,29.40,10.0,WSW,5.8,-,N/A,,Clear,250,2012-10-16 20:53:00
4:13 PM,73.4,41.0,31,29.38,10.0,Calm,Calm,-,N/A,,Clear,0,2012-10-16 21:13:00
4:33 PM,75.2,41.0,29,29.37,10.0,Calm,Calm,-,N/A,,Clear,0,2012-10-16 21:33:00
4:53 PM,75.2,41.0,29,29.37,10.0,SSE,3.5,-,N/A,,Clear,160,2012-10-16 21:53:00
5:13 PM,73.4,41.0,31,29.37,10.0,Calm,Calm,-,N/A,,Clear,0,2012-10-16 22:13:00
5:33 PM,71.6,42.8,35,29.37,10.0,Calm,Calm,-,N/A,,Mostly Cloudy,0,2012-10-16 22:33:00
5:54 PM,71.6,42.8,35,29.37,10.0,Calm,Calm,-,N/A,,Overcast,0,2012-10-16 22:54:00
6:14 PM,69.8,42.8,38,29.37,10.0,Calm,Calm,-,N/A,,Overcast,0,2012-10-16 23:14:00
6:33 PM,69.8,42.8,38,29.37,10.0,Calm,Calm,-,N/A,,Overcast,0,2012-10-16 23:33:00
6:53 PM,69.8,42.8,38,29.36,10.0,Calm,Calm,-,N/A,,Overcast,0,2012-10-16 23:53:00
7:13 PM,68.0,42.8,40,29.36,10.0,Calm,Calm,-,N/A,,Overcast,0,2012-10-17 00:13:00
7:33 PM,68.0,42.8,40,29.36,10.0,SSE,3.5,-,N/A,,Overcast,150,2012-10-17 00:33:00
7:53 PM,66.2,44.6,46,29.37,10.0,Calm,Calm,-,N/A,,Overcast,0,2012-10-17 00:53:00
8:13 PM,66.2,42.8,43,29.36,10.0,SSW,5.8,-,N/A,,Mostly Cloudy,200,2012-10-17 01:13:00
8:33 PM,66.2,42.8,43,29.34,10.0,Calm,Calm,-,N/A,,Clear,0,2012-10-17 01:33:00
8:54 PM,60.8,42.8,52,29.33,10.0,SE,4.6,-,N/A,,Clear,130,2012-10-17 01:54:00
9:13 PM,60.8,42.8,52,29.32,10.0,ESE,6.9,-,N/A,,Clear,110,2012-10-17 02:13:00
9:34 PM,60.8,42.8,52,29.32,10.0,SE,3.5,-,N/A,,Clear,140,2012-10-17 02:34:00
9:53 PM,57.2,42.8,59,29.33,10.0,SSW,5.8,-,N/A,,Clear,210,2012-10-17 02:53:00
10:13 PM,60.8,42.8,52,29.33,10.0,SW,9.2,-,N/A,,Clear,220,2012-10-17 03:13:00
10:33 PM,59.0,44.6,59,29.33,10.0,SW,4.6,-,N/A,,Clear,220,2012-10-17 03:33:00
10:53 PM,60.8,44.6,55,29.32,10.0,South,4.6,-,N/A,,Clear,190,2012-10-17 03:53:00
11:13 PM,60.8,42.8,52,29.31,10.0,SSE,6.9,-,N/A,,Clear,160,2012-10-17 04:13:00
11:33 PM,59.0,42.8,55,29.31,10.0,SSE,5.8,-,N/A,,Clear,160,2012-10-17 04:33:00
11:53 PM,59.0,42.8,55,29.29,10.0,SE,9.2,-,N/A,,Clear,130,2012-10-17 04:53:00